This site uses a module created by best online poker sites.

BSB police report ending August 2, 2018

Print
"08/01/2018","00:08","218CR0019140","SUSPICIOUS ACTIVITY","SUSPICIOUS ACTIVITY","531 S MONTANA","",""
"08/01/2018","00:18","218CR0019141","SUSPICIOUS ACTIVITY","SUSPICIOUS ACTIVITY","TEXAS AND WALL","",""
"08/01/2018","00:41","218CR0019142","T/S","T/S","GEORGE AND HARRISON","",""
"08/01/2018","00:43","218CR0019143","BURGLARY","CRIMINAL CONTEMPT","415 W IRON ST BENNYS POWER TOY","ARREST(s) MADE",""
"08/01/2018","00:50","218CR0019144","BUSINESS CHECK","BUSINESS CHECK","1370 HARRISON","",""
"08/01/2018","00:59","218CR0019145","T/S","T/S","GRAND AVE AND WILSON ST","",""
"08/01/2018","01:13","218CR0019146","MEDICAL - EMERGENCY","MEDICAL - EMERGENCY","914 LEWISOHN ST","",""
"08/01/2018","01:31","218CR0019147","SUSPICIOUS ACTIVITY","SUSPICIOUS ACTIVITY","1631 ELM ST","",""
"08/01/2018","01:54","218CR0019148","JUVENILE MISC","JUVENILE MISC","************","",""
"08/01/2018","01:55","218CR0019149","ALL OTHER","POSSESS DRUG PARAPHERNALIA","417 W IRON ST","ARREST(s) MADE",""
"08/01/2018","04:00","218CR0019150","T/S","DRIVE WHILE SUSP. OR REVOKED","TEXAS AND WALL","ARREST(s) MADE",""
"08/01/2018","04:41","218CR0019151","PROWLER","PROWLER","920 S COLORADO","",""
"08/01/2018","05:17","218CR0019152","SUSPICIOUS ACTIVITY","SUSPICIOUS ACTIVITY","2100 MEADOWLARK","",""
"08/01/2018","05:28","218CR0019153","PROWLER","CRIMINAL TRESPASS TO PROPERTY","920 S COLORADO","ARREST(s) MADE",""
"08/01/2018","05:47","218CR0019154","ALARM - BURGLARY","ALARM - BURGLARY","************","",""
"08/01/2018","07:09","218CR0019155","ALARM - BURGLARY","ALARM - BURGLARY","************","",""
"08/01/2018","07:44","218CR0019156","CIVIL PAPER SERVICE","CIVIL PAPER SERVICE","3010 STATE","",""
"08/01/2018","07:45","218CR0019157","ACCIDENT","ACCIDENT","6354 ALBANY","",""
"08/01/2018","07:47","218CR0019158","ALARM - BURGLARY","ALARM - BURGLARY","************","",""
"08/01/2018","07:52","218CR0019159","CIVIL PAPER SERVICE","CIVIL PAPER SERVICE","3142 HANNIBAL","",""
"08/01/2018","07:59","218CR0019160","CIVIL PAPER SERVICE","CIVIL PAPER SERVICE","2825 FARRAGUT APT A101","",""
"08/01/2018","08:01","218CR0019161","CIVIL PAPER SERVICE","CIVIL PAPER SERVICE","1119 CALEDONIA","",""
"08/01/2018","08:05","218CR0019162","CIVIL PAPER SERVICE","CIVIL PAPER SERVICE","2101 YALE","",""
"08/01/2018","08:09","218CR0019163","CIVIL PAPER SERVICE","CIVIL PAPER SERVICE","2520 WASHOE","",""
"08/01/2018","08:14","218CR0019164","CIVIL PAPER SERVICE","CIVIL PAPER SERVICE","802 MARYLAND","",""
"08/01/2018","08:18","218CR0019165","CIVIL PAPER SERVICE","CIVIL PAPER SERVICE","626 S WASHINGTON ST","",""
"08/01/2018","08:20","218CR0019166","ASSAULT","ASSAULT, SIMPLE","1515 OREGON AVE APT 314","",""
"08/01/2018","08:24","218CR0019167","CIVIL PAPER SERVICE","CIVIL PAPER SERVICE","16 HOLLY LANE","",""
"08/01/2018","08:33","218CR0019168","CIVIL PAPER SERVICE","CIVIL PAPER SERVICE","2101 YALE","",""
"08/01/2018","08:35","218CR0019169","CIVIL PAPER SERVICE","CIVIL PAPER SERVICE","1714 SAMPSON","",""
"08/01/2018","08:36","218CR0019170","CIVIL PAPER SERVICE","CIVIL PAPER SERVICE","141 KETCHUM LN","",""
"08/01/2018","08:40","218CR0019171","CIVIL PAPER SERVICE","CIVIL PAPER SERVICE","910 EVANS APT A1","",""
"08/01/2018","08:43","218CR0019172","CIVIL PAPER SERVICE","CIVIL PAPER SERVICE","1724 THOMAS AVE","",""
"08/01/2018","08:46","218CR0019173","CIVIL PAPER SERVICE","CIVIL PAPER SERVICE","2501 PARROT","",""
"08/01/2018","08:50","218CR0019175","CIVIL PAPER SERVICE","CIVIL PAPER SERVICE","2006 S UTAH","",""
"08/01/2018","08:50","218CR0019174","CIVIL PAPER SERVICE","CIVIL PAPER SERVICE","2237 GRAND AVE","",""
"08/01/2018","08:55","218CR0019176","CIVIL PAPER SERVICE","CIVIL PAPER SERVICE","4316 HILLSIDE","",""
"08/01/2018","08:58","218CR0019177","CIVIL PAPER SERVICE","CIVIL PAPER SERVICE","1818 A ST","",""
"08/01/2018","09:05","218CR0019178","CIVIL PAPER SERVICE","CIVIL PAPER SERVICE","1503 C ST","",""
"08/01/2018","09:11","218CR0019179","CIVIL PAPER SERVICE","CIVIL PAPER SERVICE","1821 LOWELL","",""
"08/01/2018","09:24","218CR0019180","THEFT","THEFT","1763 STEWART","",""
"08/01/2018","09:27","218CR0019181","CIVIL PAPER SERVICE","CIVIL PAPER SERVICE","3825 GREEN LN #10","",""
"08/01/2018","09:32","218CR0019182","ALARM - FIRE","ALARM - FIRE","105 // 111 W BROADWAY","",""
"08/01/2018","09:33","218CR0019183","CIVIL PAPER SERVICE","CIVIL PAPER SERVICE","112 RAMPART DR","",""
"08/01/2018","09:36","218CR0019184","CIVIL PAPER SERVICE","CIVIL PAPER SERVICE","1511 GAYLORD","",""
"08/01/2018","09:41","218CR0019185","CIVIL PAPER SERVICE","CIVIL PAPER SERVICE","50 FORD WAY","",""
"08/01/2018","09:45","218CR0019186","T/S","T/S","100 BLK W PARK ST","",""
"08/01/2018","09:45","218CR0019187","CIVIL PAPER SERVICE","CIVIL PAPER SERVICE","1911 PORTER","",""
"08/01/2018","10:20","218CR0019188","CIVIL PAPER SERVICE","CIVIL PAPER SERVICE","3220 HARRISON","",""
"08/01/2018","10:23","218CR0019189","CIVIL PAPER SERVICE","CIVIL PAPER SERVICE","3450 MONROE","",""
"08/01/2018","10:32","218CR0019190","ACCIDENT- INJURY(MHP)","ACCIDENT- INJURY(MHP)","CONTINENTAL DR AND LYNDALE LN","",""
"08/01/2018","10:46","218CR0019191","CIVIL PAPER SERVICE","CIVIL PAPER SERVICE","76 PRARIE DRIVE","",""
"08/01/2018","10:54","218CR0019192","SUSPICIOUS ACTIVITY","SUSPICIOUS ACTIVITY","MT CON","",""
"08/01/2018","11:27","218CR0019193","ACCIDENT","ACCIDENT","DEWEY BLVD AND HARRISON AVE","",""
"08/01/2018","11:42","218CR0019194","CIVIL PAPER SERVICE","CIVIL PAPER SERVICE","1555 ELM ST","",""
"08/01/2018","11:47","218CR0019195","CIVIL PAPER SERVICE","CIVIL PAPER SERVICE","3235 WHARTON","",""
"08/01/2018","12:14","218CR0019197","VANDALISM/CRIMINAL MISCHIEF","VANDALISM/CRIMINAL MISCHIEF","823 W PARK","",""
"08/01/2018","12:27","218CR0019198","CIVIL PAPER SERVICE","CIVIL PAPER SERVICE","221 N CLARK","",""
"08/01/2018","12:29","218CR0019199","CIVIL PAPER SERVICE","CIVIL PAPER SERVICE","2340 CORNEL FAIRFIELD INN","",""
"08/01/2018","12:33","218CR0019200","CIVIL PAPER SERVICE","CIVIL PAPER SERVICE","1203 BRITANIA BLVD","",""
"08/01/2018","12:38","218CR0019201","CIVIL PAPER SERVICE","CIVIL PAPER SERVICE","1442 DEWEY","",""
"08/01/2018","12:47","218CR0019202","CIVIL PAPER SERVICE","CIVIL PAPER SERVICE","310 W FRONT","",""
"08/01/2018","12:52","218CR0019203","CIVIL PAPER SERVICE","CIVIL PAPER SERVICE","2324 S MONTANA","",""
"08/01/2018","12:56","218CR0019204","VANDALISM/CRIMINAL MISCHIEF","CRIMINAL MISCHIEF","701 DEWEY","",""
"08/01/2018","13:02","218CR0019205","CIVIL PAPER SERVICE","CIVIL PAPER SERVICE","300 MT HIGHLAND DR THE SPRINGS","",""
"08/01/2018","13:05","218CR0019206","CIVIL PAPER SERVICE","CIVIL PAPER SERVICE","5100 S WARREN #28","",""
"08/01/2018","13:12","218CR0019207","SUSPICIOUS ACTIVITY","SUSPICIOUS ACTIVITY","10 BLK W GOLD","",""
"08/01/2018","13:36","218CR0019208","T/S","T/S","225 N ALASKA","",""
"08/01/2018","13:44","218CR0019209","DISTURBANCE","DISTURBANCE","1324 HARRISON","",""
"08/01/2018","13:55","218CR0019210","CITIZEN AID","CITIZEN AID","1330 W GRANITE","",""
"08/01/2018","14:24","218CR0019211","THEFT","THEFT, SHOPLIFT","3700 HARRISON","",""
"08/01/2018","14:27","218CR0019212","RESTRAINING ORDER VIOLATION","RESTRAINING ORDER VIOLATION","************","",""
"08/01/2018","14:55","218CR0019213","BURGLARY","BURGLARY, NON-RESIDENCE","273 N CAMP CREEK ROAD","",""
"08/01/2018","15:10","218CR0019214","DISTURBANCE","DISTURBANCE","1916 THORTON","",""
"08/01/2018","15:13","218CR0019215","T/S","USE OF ELECTR. DEVICE W/OP MV","BROADWAY AND ARIZONA","",""
"08/01/2018","15:30","218CR0019216","SUICIDE ATTEMPT/THREAT","SUICIDE ATTEMPT/THREAT","************","",""
"08/01/2018","15:34","218CR0019217","MEDICAL - EMERGENCY","MEDICAL - EMERGENCY","820 DEWEY BLVD WESTERN MEAT BL","",""
"08/01/2018","15:43","218CR0019218","ACCIDENT","ACCIDENT","3650 HARRISON WELLS FARGO","",""
"08/01/2018","15:51","218CR0019219","T/S","CRIMINAL CONTEMPT","400 S CLARK ST","ARREST(s) MADE",""
"08/01/2018","15:56","218CR0019220","ACCIDENT","ACCIDENT","GILMAN ST AND HARRISON AVE","",""
"08/01/2018","16:10","218CR0019221","RESTRAINING ORDER VIOLATION","VIOLATION OF PROTECTION ORDER","2035 ELM ST","",""
"08/01/2018","16:13","218CR0019222","WELFARE CHECK","WELFARE CHECK","910 EVANS","",""
"08/01/2018","16:25","218CR0019223","ACCIDENT","CARELESS DRIVING","GILMAN ST AND HARRISON AVE","",""
"08/01/2018","16:25","218CR0019224","SEXUAL ASSAULT","SEXUAL ASSAULT","************","",""
"08/01/2018","16:31","218CR0019225","FRAUD","FRAUD","225 N ALASKA","",""
"08/01/2018","16:36","218CR0019226","CITIZEN AID","CITIZEN AID","5050 HARRISON AVE","",""
"08/01/2018","16:42","218CR0019227","FAIL TO REGISTER-NON COMPLIANT","FAIL TO REGISTER AS OFFENDER","225 ALASKA ST","",""
"08/01/2018","16:42","218CR0019228","CIVIL PAPER SERVICE","CIVIL PAPER SERVICE","2031 ELM ST","",""
"08/01/2018","16:52","218CR0019229","CIVIL PAPER SERVICE","CIVIL PAPER SERVICE","2025 FARRAGUT A101","",""
"08/01/2018","17:03","218CR0019230","UNKNOWN PROBLEM","UNKNOWN PROBLEM","3501 HARRISON AVE","",""
"08/01/2018","17:09","218CR0019231","T/S","T/S @ GEORGE ST AND MONTANA ST","GEORGE ST AND MONTANA ST","",""
"08/01/2018","17:34","218CR0019232","DISTURBANCE-NOISE","DISTURBANCE-NOISE","419 W IRON ST","",""
"08/01/2018","17:36","218CR0019233","HIT AND RUN","HIT AND RUN","3041 EAGLE ST","",""
"08/01/2018","17:46","218CR0019234","SEXUAL ASSAULT","SEXUAL ASSAULT","************","",""
"08/01/2018","17:54","218CR0019235","MEDICAL - EMERGENCY","MEDICAL - EMERGENCY","5100 S WARREN #13","",""
"08/01/2018","18:06","218CR0019236","T/S","T/S","HARRISON AVE AND MCKINLEY ST","",""
"08/01/2018","18:12","218CR0019237","CIVIL PAPER SERVICE","CIVIL PAPER SERVICE","3825 GREEN LANE #13","",""
"08/01/2018","18:14","218CR0019238","ALL OTHER","ALL OTHER","1823 SHERMAN","",""
"08/01/2018","18:22","218CR0019239","SUSPICIOUS ACTIVITY","SUSPICIOUS ACTIVITY","630 W BROADWAY ST","",""
"08/01/2018","18:29","218CR0019240","SUSPICIOUS ACTIVITY","SUSPICIOUS ACTIVITY","807 N MONTANA","",""
"08/01/2018","19:04","218CR0019241","SUSPICIOUS ACTIVITY","SUSPICIOUS ACTIVITY","862 S MAIN ST","",""
"08/01/2018","19:26","218CR0019242","ALARM - BURGLARY","ALARM - BURGLARY","************","",""
"08/01/2018","19:38","218CR0019243","ALARM - BURGLARY","ALARM - BURGLARY","************","",""
"08/01/2018","19:45","218CR0019244","THEFT","THEFT, SHOPLIFT","3332 HARRISON AVE","",""
"08/01/2018","19:55","218CR0019245","ASSAULT","ASSAULT","************","",""
"08/01/2018","19:56","218CR0019246","DISTURBANCE","DISTURBANCE","1300 BLK SILVERBOW HOMES","",""
"08/01/2018","20:01","218CR0019247","THEFT","THEFT","4655 HARRISON AVE","",""
"08/01/2018","20:07","218CR0019248","T/S","POSSESS DRUG PARAPHERNALIA","900 BLK DELEWARE","ARREST(s) MADE",""
"08/01/2018","20:25","218CR0019249","JUVENILE MISC","JUVENILE MISC","************","",""
"08/01/2018","20:27","218CR0019250","T/S","T/S","LONGFELLOW AND WARREN","",""
"08/01/2018","20:28","218CR0019251","DISTURBANCE","DISTURBANCE","350 S MONTANA SUBWAY SANDS","",""
"08/01/2018","21:12","218CR0019252","T/S","T/S","FARRELL AND THORTON","",""
"08/01/2018","21:13","218CR0019253","CIVIL PAPER SERVICE","CIVIL PAPER SERVICE","3825 GREEN LANE #13","",""
"08/01/2018","21:20","218CR0019254","MEDICAL - EMERGENCY","MEDICAL - EMERGENCY","2930 ELM ST","",""
"08/01/2018","21:30","218CR0019255","SUSPICIOUS ACTIVITY","SUSPICIOUS ACTIVITY","700 BLK S DAKOTA","",""
"08/01/2018","21:34","218CR0019256","MEDICAL - EMERGENCY","MEDICAL - EMERGENCY","55 BASIN CREEK RD","",""
"08/01/2018","21:36","218CR0019257","SUSPICIOUS ACTIVITY","SUSPICIOUS ACTIVITY","1224 E SECOND ST","",""
"08/01/2018","21:40","218CR0019258","ALARM - BURGLARY","ALARM - BURGLARY","************","",""
"08/01/2018","21:44","218CR0019259","ALL OTHER","ALL OTHER","225 N ALASKA","",""
"08/01/2018","21:50","218CR0019260","SUSPICIOUS ACTIVITY","SUSPICIOUS ACTIVITY","2207 WALNUT ST","",""
"08/01/2018","21:54","218CR0019261","BURGLARY","BURGLARY, RESIDENCE","313 S DAKOTA ST","",""
"08/01/2018","22:12","218CR0019262","WANTED PERSON","CRIMINAL CONTEMPT","901 E FRONT ST","ARREST(s) MADE",""
"08/01/2018","22:20","218CR0019263","SUSPICIOUS ACTIVITY","SUSPICIOUS ACTIVITY","CIVIC CENTER RD AT CORRAL","",""
"08/01/2018","22:37","218CR0019264","SUSPICIOUS ACTIVITY","SUSPICIOUS ACTIVITY","1 W PARK","",""
"08/01/2018","22:42","218CR0019265","ALARM - BURGLARY","ALARM - BURGLARY","************","",""
"08/01/2018","22:58","218CR0019266","FRAUD","FORGERY/COUNTERFEIT","2305 CONTINENTAL DR TOWN PUMP","",""
"08/01/2018","23:07","218CR0019267","SUSPICIOUS ACTIVITY","SUSPICIOUS ACTIVITY","MONTANA AND SILVER","",""
"08/01/2018","23:20","218CR0019268","MISSING PERSON","MISSING PERSON","************","",""
"08/01/2018","23:28","218CR0019269","MEDICAL - EMERGENCY","MEDICAL - EMERGENCY","831 WAUKESHA","",""
"08/01/2018","23:39","218CR0019270","SUSPICIOUS ACTIVITY","SUSPICIOUS ACTIVITY","1129 W GRANITE","",""
"08/01/2018","23:44","218CR0019271","SUSPICIOUS ACTIVITY","SUSPICIOUS ACTIVITY","823 S MONTANA THUNDER ALLEY","",""
"08/01/2018","23:52","218CR0019272","CIVIL PAPER SERVICE","CIVIL PAPER SERVICE","310 W FRONT SAFEWAY STORE","",""
"08/02/2018","00:19","218CR0019273","ASSIST OTHER AGENCY","ASSIST OTHER AGENCY","I15 MM 125 SB","",""
"08/02/2018","00:21","218CR0019274","T/S","T/S","BUS TRANSFER STATION","",""
"08/02/2018","00:44","218CR0019275","SUSPICIOUS ACTIVITY","SUSPICIOUS ACTIVITY","CORNELL AND FARRAGUT","",""
"08/02/2018","00:48","218CR0019276","DISTURBANCE","DISTURBANCE","1653 HARRISON AVE PAIR A DICE","",""
"08/02/2018","01:26","218CR0019277","DISTURBANCE","DISTURBANCE","707 SILVERBOW HOMES","",""
"08/02/2018","01:52","218CR0019278","ACCIDENT","ACCIDENT","CHULA AND PARROTT","",""
"08/02/2018","01:57","218CR0019279","T/S","T/S @ HARRISON AND DUNDEE","HARRISON AND DUNDEE","",""
"08/02/2018","02:36","218CR0019280","FRAUD","FRAUD","531 S MONTANA","",""
"08/02/2018","03:14","218CR0019281","ACCIDENT","POSSESS DRUG PARAPHERNALIA","BASIN CR RD // HERMAN GLCH","ARREST(s) MADE",""
"08/02/2018","04:25","218CR0019282","WELFARE CHECK","WELFARE CHECK","2709 FLORAL BLVD","",""
"08/02/2018","05:59","218CR0019283","SUSPICIOUS ACTIVITY","SUSPICIOUS ACTIVITY","CONTINENTAL DR AND MEADOW VIEW","",""
"08/02/2018","06:35","218CR0019284","ALARM - FIRE","ALARM - FIRE","300 MOUNT HIGHLAND DR","",""
"08/02/2018","07:01","218CR0019285","ABANDONED VEHICLE","ABANDONED VEHICLE","206 W GRANITE","",""
"08/02/2018","07:27","218CR0019286","CIVIL PAPER SERVICE","CIVIL PAPER SERVICE","1119 CALEDONIA","",""
"08/02/2018","07:38","218CR0019287","CIVIL PAPER SERVICE","CIVIL PAPER SERVICE","3023 WHARTON","",""
"08/02/2018","07:46","218CR0019288","CIVIL PAPER SERVICE","CIVIL PAPER SERVICE","2031 ELM","",""
"08/02/2018","07:46","218CR0019289","T/S","T/S @ OTTAWA ANDFARRAGUT","OTTAWA ANDFARRAGUT","",""
"08/02/2018","07:47","218CR0019290","CIVIL PAPER SERVICE","CIVIL PAPER SERVICE","122015 N BROWNS GULCH RD","",""
"08/02/2018","07:49","218CR0019294","SUSPICIOUS ACTIVITY","SUSPICIOUS ACTIVITY","800 S MONTANA","",""
"08/02/2018","07:51","218CR0019291","CIVIL PAPER SERVICE","CIVIL PAPER SERVICE","420 W PARK","",""
"08/02/2018","07:51","218CR0019292","CIVIL PAPER SERVICE","CIVIL PAPER SERVICE","1724 THOMAS","",""
"08/02/2018","07:53","218CR0019293","CIVIL PAPER SERVICE","CIVIL PAPER SERVICE","115 S EXCELSIOR","",""
"08/02/2018","08:03","218CR0019295","CIVIL PAPER SERVICE","CIVIL PAPER SERVICE","111 W PLATINUM ST","",""
 
Tuesday the 21st. Affiliate Marketing.
Copyright 2012

©